Weather in Rozhdestvensk

Russia / Perm Krai     58°30′59″N   55°14′02″E
temp.,
°C
wind,
m/s
gust,
m/s
humid.,
%
clouds,
%
prec.,
mm/h
press.,
hPa
HPBL,
m
4 march, thu
thu423:00−8w259499 1.3 997116
02:00−10wsw379681 0.0 996184
05:00−11wsw379684 0.0 996153
08:00−10sw379598 0.2 995251
11:00−9sw369398 0.3 995284
14:00−5ssw4793100 0.6 993505
17:00−4s41093100 1.1 992551
20:00−5s41192100 0.2 988645
5 march, fri
fri523:00−5se41195100 0.9 985648
02:00−4sse2796100 1.4 984435
05:00−7wnw1297100 1.5 98641
08:00−8wnw3796100 0.2 990209
11:00−6wnw5893100 1.0 993605
14:00−7wnw5889100 0.4 996655
17:00−8wnw4982100 0.4 999767
20:00−13w34916 0.0 100189
6 march, sat
sat623:00−14wsw269627 0.0 1004103
02:00−15wsw239787 0.1 100444
05:00−14wnw239793 0.3 100682
08:00−16w3895100 0.1 1007353
11:00−16w369083 0.2 1008350
14:00−13w358578 0.0 1009610
17:00−12w358589 0.1 1010710
20:00−16wsw2295100 0.0 101023
7 march, sun
sun723:00−18wsw2398100 0.1 101139
02:00−20wsw229981 0.0 101020
05:00−21wsw129984 0.1 101120
08:00−23wsw229988 0.0 101020
11:00−18wsw239188 0.1 1010243
14:00−14wsw228195 0.0 1009665
17:00−14ssw238498 0.1 1009618
20:00−18s229468 0.0 100821
8 march, mon
mon823:00−20s239850 0.0 100966
02:00−20sse379877 0.0 1007186
05:00−19sse499685 0.0 1005283
08:00−18se41096100 0.1 1003368
11:00−16se4993100 0.6 1001478
14:00−12se4790100 0.4 1000622
17:00−9se3693100 1.0 999520
20:00−10s2495100 0.4 1000111